Location: Poughquag
(41.6090°N, 73.6820°W)
Time: 13:50:05
(UTC-05:00)

Vanguard 1 - Pass Details

Date: 07 December 2023
Orbit: 653 x 3825 km, 34.3° (Epoch: 03 March)

Event Time Altitude Azimuth Distance (km) Brightness Sun altitude
Rises 14:35:19 0° 192° (SSW) 4,546 14.6 14.8°
Reaches altitude 10° 14:38:48 10° 177° (S) 3,991 14.0 14.3°
Maximum altitude 14:46:54 23° 130° (SE) 3,954 13.2 13.3°
Drops below altitude 10° 14:58:36 10° 87° (E) 6,006 13.7 11.8°
Sets 15:05:38 0° 76° (ENE) 7,499 14.0 10.9°
